Location: Newark
(26.0814°N, 97.8289°W)
Time: 09:55:54
(UTC+00:00)

LightSail 2 - Pass Details

Date: 01 February 2020
Orbit: 698 x 724 km, 24.0° (Epoch: 26 February)

Event Time Altitude Azimuth Distance (km) Brightness Sun altitude
Rises 00:58:39 0° 262° (W) 3,063 10.6 -10.5°
Reaches altitude 10° 01:01:54 10° 241° (WSW) 2,147 9.0 -11.2°
Maximum altitude 01:04:59 16° 204° (SSW) 1,767 7.7 -11.9°
Drops below altitude 10° 01:08:05 10° 166° (SSE) 2,154 7.6 -12.6°
Sets 01:11:22 0° 145° (SE) 3,076 8.2 -13.3°
